User: anonymous   Login
Location: St Andrew
(49.4460°N, 2.5750°W)
Time: 19:38:47
(UTC+01:00)
Language:

Iridium 66 - Orbit

View from above orbital plane
View from above orbital plane
View from above satellite
View from above satellite

Ground track
Ground track

The orbit data is extracted from the following two-line orbital elements,

1 25289U 98021E   17207.58843206 -.00000048 +00000-0 -24233-4 0  9991
2 25289 086.3962 207.2811 0002129 085.5013 274.6426 14.34216002010677
Epoch (UTC): 26 July 2017 14:07:20
Eccentricity: 0.0002129
inclination: 86.3962°
perigee height: 776 km
apogee height: 779 km
right ascension of ascending node: 207.2811°
argument of perigee: 85.5013°
revolutions per day: 14.34216002
mean anomaly at epoch: 274.6426°
orbit number at epoch: 1067

The dashed part of the orbit path shows where the satellite is in the earth's shadow,  

DLR